Weather History for Sussex, NJ

Change the Weather History Date:

Sunday, August 25, 2013

  Actual Average Record
Temperature  
Mean Temperature 62 °F -  
Max Temperature 79 °F 78 °F 95 °F (1948)
Min Temperature 46 °F 54 °F 39 °F (1971)
Degree Days  
Heating Degree Days 3    
Growing Degree Days 12 (Base 50)    
Moisture  
Dew Point 53 °F    
Average Humidity 78    
Maximum Humidity 100    
Minimum Humidity 45    
Precipitation  
Precipitation 0.01 in - - ()
Sea Level Pressure  
Sea Level Pressure 30.35 in    
Wind  
Wind Speed 1 mph (SSW)    
Max Wind Speed 8 mph    
Max Gust Speed -    
Visibility 10 miles    
Events      
Averages and records for this station are not official NWS values.
T = Trace of Precipitation, MM = Missing Value Source: NWS Daily Summary

Daily Weather History Graph

Daily Weather History Graph

Search for Another Location

Airport:

Trip Planner

Search our weather history database for the weather conditions in past years. The results will help you decide how hot, cold, wet, or windy it might be!

Date:

Astronomy

Aug. 25, 2013 Rise Set
Actual Time 6:18 AM EDT 7:42 PM EDT
Civil Twilight 5:49 AM EDT 8:10 PM EDT
Nautical Twilight 5:14 AM EDT 8:45 PM EDT
Astronomical Twilight 4:38 AM EDT 9:21 PM EDT
Moon 10:07 PM EDT (8/25) 11:21 AM EDT (8/25)
Length of Visible Light 14h 21m
Length of Day
13h 23m
Waning Gibbous, 76% of the Moon is Illuminated
Aug 25
Waning Gibbous
Aug 28
Last Quarter
Sep 5
New
Sep 12
First Quarter
Sep 19
Full

Hourly Weather History & Observations

Time (EDT) Temp. Dew Point Humidity Pressure Visibility Wind Dir Wind Speed Gust Speed Precip Events Conditions
12:53 AM 51.1 °F 50.0 °F 96% 30.36 in 10.0 mi Calm Calm - N/A   Clear
1:53 AM 51.1 °F 50.0 °F 96% 30.35 in 10.0 mi Calm Calm - 0.01 in   Clear
2:22 AM 50.0 °F 50.0 °F 100% 30.35 in 4.0 mi Calm Calm - N/A   Partly Cloudy
2:53 AM 48.9 °F 48.9 °F 100% 30.35 in 9.0 mi Calm Calm - N/A   Clear
3:53 AM 48.9 °F 48.0 °F 97% 30.36 in 10.0 mi Calm Calm - N/A   Clear
4:53 AM 48.0 °F 46.9 °F 96% 30.38 in 8.0 mi Calm Calm - N/A   Clear
5:53 AM 48.0 °F 46.9 °F 96% 30.39 in 10.0 mi Calm Calm - N/A   Clear
6:12 AM 46.4 °F 46.4 °F 100% 30.39 in 8.0 mi Calm Calm - N/A   Partly Cloudy
6:53 AM 48.9 °F 48.9 °F 100% 30.40 in 10.0 mi Calm Calm - N/A   Clear
7:53 AM 51.1 °F 50.0 °F 96% 30.42 in 10.0 mi Calm Calm - N/A   Clear
8:53 AM 59.0 °F 55.9 °F 90% 30.42 in 10.0 mi Calm Calm - N/A   Clear
9:53 AM 66.9 °F 57.9 °F 73% 30.40 in 10.0 mi Variable 3.5 mph - N/A   Clear
10:53 AM 71.1 °F 60.1 °F 68% 30.39 in 10.0 mi Variable 3.5 mph - N/A   Clear
11:53 AM 75.0 °F 60.1 °F 60% 30.37 in 10.0 mi Variable 4.6 mph - N/A   Clear
12:53 PM 77.0 °F 57.0 °F 50% 30.35 in 10.0 mi Variable 4.6 mph - N/A   Clear
1:53 PM 77.0 °F 54.0 °F 45% 30.34 in 10.0 mi SW 8.1 mph - N/A   Clear
2:53 PM 78.1 °F 55.0 °F 45% 30.32 in 10.0 mi South 6.9 mph - N/A   Clear
3:53 PM 78.1 °F 55.9 °F 46% 30.31 in 10.0 mi Variable 4.6 mph - N/A   Clear
4:53 PM 77.0 °F 55.9 °F 48% 30.29 in 10.0 mi SSW 4.6 mph - N/A   Clear
5:53 PM 75.9 °F 54.0 °F 46% 30.27 in 10.0 mi Variable 4.6 mph - N/A   Clear
6:53 PM 72.0 °F 54.0 °F 53% 30.25 in 10.0 mi Calm Calm - N/A   Clear
10:53 PM 60.1 °F 57.9 °F 93% 30.25 in 10.0 mi Calm Calm - N/A   Clear
11:53 PM 60.1 °F 57.9 °F 93% 30.24 in 10.0 mi Calm Calm - N/A   Clear